TimeCDT,TemperatureF,Dew PointF,Humidity,Sea Level PressureIn,VisibilityMPH,Wind Direction,Wind SpeedMPH,Gust SpeedMPH,PrecipitationIn,Events,Conditions,WindDirDegrees,DateUTC
12:52 AM,32.0,30.9,96,30.11,-9999.0,East,11.5,-,N/A,,Unknown,100,2012-10-29 05:52:00
1:52 AM,33.1,32.0,96,30.09,-9999.0,SE,12.7,-,N/A,,Unknown,130,2012-10-29 06:52:00
2:52 AM,33.1,32.0,96,30.08,-9999.0,ESE,10.4,-,N/A,,Unknown,120,2012-10-29 07:52:00
3:52 AM,33.1,32.0,96,30.09,-9999.0,SE,10.4,-,N/A,,Unknown,130,2012-10-29 08:52:00
4:52 AM,33.1,32.0,96,30.08,-9999.0,SE,9.2,-,N/A,,Unknown,130,2012-10-29 09:52:00
5:52 AM,33.1,32.0,96,30.09,-9999.0,SE,6.9,-,N/A,,Unknown,140,2012-10-29 10:52:00
6:52 AM,33.1,32.0,96,30.08,-9999.0,ESE,9.2,-,N/A,,Unknown,120,2012-10-29 11:52:00
7:52 AM,33.1,32.0,96,30.09,-9999.0,ESE,6.9,-,N/A,,Unknown,120,2012-10-29 12:52:00
8:52 AM,33.1,32.0,96,30.10,-9999.0,ESE,8.1,-,N/A,,Unknown,110,2012-10-29 13:52:00
9:52 AM,33.1,32.0,96,30.10,-9999.0,East,8.1,-,N/A,,Unknown,100,2012-10-29 14:52:00
10:52 AM,34.0,33.1,96,30.10,-9999.0,ESE,8.1,-,N/A,,Unknown,120,2012-10-29 15:52:00
11:52 AM,34.0,34.0,100,30.10,-9999.0,East,8.1,-,N/A,,Unknown,90,2012-10-29 16:52:00
12:52 PM,35.1,35.1,100,30.10,-9999.0,ESE,5.8,-,N/A,,Unknown,120,2012-10-29 17:52:00
1:52 PM,37.9,36.0,93,30.09,-9999.0,East,6.9,-,N/A,,Unknown,100,2012-10-29 18:52:00
2:52 PM,41.0,37.0,86,30.06,-9999.0,ESE,9.2,-,N/A,,Unknown,110,2012-10-29 19:52:00
3:52 PM,45.0,39.0,80,30.05,-9999.0,East,11.5,-,N/A,,Unknown,100,2012-10-29 20:52:00
4:52 PM,45.0,39.0,80,30.05,-9999.0,ESE,9.2,-,N/A,,Unknown,110,2012-10-29 21:52:00
5:52 PM,45.0,39.0,80,30.04,-9999.0,East,8.1,-,N/A,,Unknown,90,2012-10-29 22:52:00
6:52 PM,44.1,39.0,82,30.04,-9999.0,East,8.1,-,N/A,,Unknown,100,2012-10-29 23:52:00
7:52 PM,44.1,39.0,82,30.04,-9999.0,ENE,6.9,-,N/A,,Unknown,70,2012-10-30 00:52:00
8:52 PM,43.0,39.0,86,30.05,-9999.0,East,9.2,-,0.01,,Unknown,80,2012-10-30 01:52:00
9:52 PM,42.1,39.9,92,30.05,-9999.0,East,9.2,-,0.03,,Unknown,90,2012-10-30 02:52:00
10:52 PM,42.1,39.9,92,30.05,-9999.0,ESE,10.4,-,0.03,,Unknown,110,2012-10-30 03:52:00
11:52 PM,41.0,39.9,96,30.04,-9999.0,ESE,10.4,-,0.03,,Unknown,110,2012-10-30 04:52:00